GHST11 ESMT-ESMT

Flight info

Callsign GHST11
Flight time 0h 36m
Altitude 5000
Route DCT BAK DCT STAY01/0030 ESL2 STAY01/0030 DCT STAY02/0030 ESB1 STAY02/0030 DCT MF
Aircraft SB39/M-SBDE2E3FGHIJ3J4J5P2RWXYZ/S

Departure

Time 2026-04-18 11:40
Airport Halmstad Airport (ESMT)

Arrival

Time 2026-04-18 12:16
Airport Halmstad Airport (ESMT)
Time Latitude Longitude Altitude Speed Heading
2026-04-18 11:22 56.68706 12.82647 71 ft 0 kts 252°
2026-04-18 11:33 56.68703 12.82630 71 ft 0 kts 252°
2026-04-18 11:37 56.68703 12.82629 71 ft 2 kts 252°
2026-04-18 11:37 56.68677 12.82545 71 ft 5 kts 189°
2026-04-18 11:37 56.68642 12.82558 70 ft 8 kts 163°
2026-04-18 11:37 56.68584 12.82589 71 ft 11 kts 164°
2026-04-18 11:38 56.68507 12.82630 71 ft 13 kts 163°
2026-04-18 11:38 56.68410 12.82672 71 ft 20 kts 179°
2026-04-18 11:38 56.68311 12.82624 71 ft 12 kts 210°
2026-04-18 11:38 56.68237 12.82485 71 ft 18 kts 232°
2026-04-18 11:39 56.68159 12.82306 71 ft 20 kts 231°
2026-04-18 11:39 56.68081 12.82125 71 ft 19 kts 238°
2026-04-18 11:39 56.68062 12.81906 71 ft 18 kts 288°
2026-04-18 11:39 56.68143 12.81831 71 ft 13 kts
2026-04-18 11:40 56.68720 12.81944 91 ft 191 kts
2026-04-18 11:40 56.70403 12.82274 674 ft 266 kts
2026-04-18 11:40 56.72759 12.82325 1130 ft 367 kts 352°
2026-04-18 11:40 56.75247 12.81611 1025 ft 365 kts 343°
2026-04-18 11:41 56.77407 12.79320 893 ft 359 kts 313°
2026-04-18 11:41 56.78645 12.75432 864 ft 354 kts 283°
2026-04-18 11:41 56.79034 12.71040 941 ft 354 kts 276°
2026-04-18 11:41 56.79369 12.66586 975 ft 352 kts 276°
2026-04-18 11:42 56.79695 12.62171 985 ft 354 kts 276°
2026-04-18 11:42 56.80020 12.57714 996 ft 354 kts 276°
2026-04-18 11:42 56.80345 12.53240 998 ft 355 kts 276°
2026-04-18 11:42 56.80660 12.48836 998 ft 352 kts 276°
2026-04-18 11:43 56.80977 12.44372 1004 ft 353 kts 275°
2026-04-18 11:43 56.81290 12.39927 997 ft 354 kts 275°
2026-04-18 11:43 56.81801 12.35578 985 ft 354 kts 287°
2026-04-18 11:43 56.82749 12.31369 997 ft 360 kts 292°
2026-04-18 11:44 56.83822 12.27235 997 ft 357 kts 294°
2026-04-18 11:44 56.84920 12.23231 987 ft 358 kts 295°
2026-04-18 11:44 56.86055 12.19160 993 ft 360 kts 295°
2026-04-18 11:44 56.87209 12.15073 986 ft 359 kts 295°
2026-04-18 11:45 56.88349 12.11063 987 ft 360 kts 295°
2026-04-18 11:45 56.89505 12.06970 995 ft 359 kts 295°
2026-04-18 11:45 56.90675 12.02915 985 ft 360 kts 301°
2026-04-18 11:45 56.92427 11.99743 911 ft 363 kts 328°
2026-04-18 11:46 56.94750 11.97899 933 ft 365 kts 340°
2026-04-18 11:46 56.97187 11.96511 967 ft 364 kts 343°
2026-04-18 11:46 56.99605 11.95271 980 ft 364 kts 345°
2026-04-18 11:46 57.02064 11.94061 974 ft 366 kts 345°
2026-04-18 11:47 57.04543 11.92878 983 ft 366 kts 345°
2026-04-18 11:47 57.06984 11.91582 978 ft 364 kts 340°
2026-04-18 11:47 57.09340 11.89907 984 ft 364 kts 337°
2026-04-18 11:47 57.11671 11.88105 999 ft 363 kts 336°
2026-04-18 11:48 57.13998 11.86248 998 ft 366 kts 335°
2026-04-18 11:48 57.16301 11.84380 988 ft 363 kts 335°
2026-04-18 11:48 57.17843 11.83120 985 ft 364 kts 335°
2026-04-18 11:48 57.20930 11.80572 986 ft 365 kts 335°
2026-04-18 11:49 57.23250 11.78655 985 ft 365 kts 335°
2026-04-18 11:49 57.24792 11.77385 994 ft 366 kts 335°
2026-04-18 11:49 57.27116 11.75472 989 ft 365 kts 335°
2026-04-18 11:49 57.29445 11.73556 986 ft 365 kts 335°
2026-04-18 11:50 57.31769 11.71637 987 ft 365 kts 335°
2026-04-18 11:50 57.34064 11.69719 990 ft 364 kts 335°
2026-04-18 11:50 57.36381 11.67775 988 ft 365 kts 335°
2026-04-18 11:50 57.38702 11.65825 993 ft 365 kts 335°
2026-04-18 11:51 57.40936 11.63944 990 ft 366 kts 335°
2026-04-18 11:51 57.43263 11.61990 982 ft 366 kts 335°
2026-04-18 11:51 57.45586 11.60030 988 ft 365 kts 335°
2026-04-18 11:51 57.47898 11.58078 990 ft 364 kts 335°
2026-04-18 11:52 57.50217 11.56125 991 ft 365 kts 335°
2026-04-18 11:52 57.52504 11.54197 992 ft 365 kts 335°
2026-04-18 11:52 57.54821 11.52237 987 ft 365 kts 335°
2026-04-18 11:52 57.57145 11.50265 978 ft 364 kts 335°
2026-04-18 11:53 57.59448 11.48311 980 ft 364 kts 335°
2026-04-18 11:53 57.61736 11.46381 984 ft 365 kts 335°
2026-04-18 11:53 57.64052 11.44426 990 ft 365 kts 335°
2026-04-18 11:53 57.66377 11.42458 997 ft 365 kts 335°
2026-04-18 11:54 57.68657 11.40519 983 ft 364 kts 335°
2026-04-18 11:54 57.70949 11.38571 974 ft 360 kts 335°
2026-04-18 11:54 57.73286 11.36832 962 ft 361 kts 345°
2026-04-18 11:54 57.75753 11.36630 906 ft 359 kts 12°
2026-04-18 11:55 57.78033 11.38503 875 ft 357 kts 39°
2026-04-18 11:55 57.79598 11.42029 874 ft 352 kts 66°
2026-04-18 11:55 57.80134 11.46398 892 ft 348 kts 92°
2026-04-18 11:55 57.79539 11.50758 927 ft 346 kts 120°
2026-04-18 11:56 57.78026 11.54155 982 ft 342 kts 138°
2026-04-18 11:56 57.76200 11.57045 989 ft 343 kts 142°
2026-04-18 11:56 57.74296 11.59800 1000 ft 342 kts 144°
2026-04-18 11:56 57.72411 11.62435 999 ft 342 kts 144°
2026-04-18 11:57 57.70483 11.65085 1015 ft 342 kts 144°
2026-04-18 11:57 57.68558 11.67704 1028 ft 342 kts 145°
2026-04-18 11:57 57.66627 11.70320 1005 ft 341 kts 145°
2026-04-18 11:57 57.64729 11.72884 998 ft 337 kts 145°
2026-04-18 11:58 57.62820 11.75458 1006 ft 338 kts 145°
2026-04-18 11:58 57.60904 11.78033 1006 ft 338 kts 145°
2026-04-18 11:58 57.59006 11.80577 1005 ft 339 kts 145°
2026-04-18 11:58 57.57084 11.83149 989 ft 339 kts 145°
2026-04-18 11:59 57.55164 11.85717 988 ft 339 kts 145°
2026-04-18 11:59 57.53276 11.88246 991 ft 338 kts 145°
2026-04-18 11:59 57.51360 11.90818 994 ft 338 kts 145°
2026-04-18 11:59 57.49443 11.93394 998 ft 338 kts 145°
2026-04-18 12:00 57.47541 11.95882 981 ft 337 kts 150°
2026-04-18 12:00 57.45306 11.97095 945 ft 335 kts 176°
2026-04-18 12:00 57.42953 11.97118 982 ft 337 kts 182°
2026-04-18 12:00 57.40629 11.96856 998 ft 337 kts 184°
2026-04-18 12:01 57.35941 11.96083 999 ft 336 kts 185°
2026-04-18 12:01 57.33632 11.95663 996 ft 337 kts 185°
2026-04-18 12:01 57.31300 11.95227 986 ft 337 kts 185°
2026-04-18 12:02 57.28967 11.94789 986 ft 336 kts 185°
2026-04-18 12:02 57.26639 11.94724 939 ft 335 kts 169°
2026-04-18 12:02 57.24398 11.96037 964 ft 339 kts 159°
2026-04-18 12:02 57.22247 11.97707 977 ft 338 kts 156°
2026-04-18 12:03 57.20096 11.99498 985 ft 339 kts 155°
2026-04-18 12:03 57.17956 12.01334 984 ft 337 kts 155°
2026-04-18 12:03 57.15849 12.03166 990 ft 339 kts 155°
2026-04-18 12:03 57.13703 12.05045 1000 ft 340 kts 155°
2026-04-18 12:04 57.11568 12.06915 1007 ft 339 kts 155°
2026-04-18 12:04 57.09458 12.08761 996 ft 339 kts 155°
2026-04-18 12:04 57.07316 12.10638 998 ft 340 kts 155°
2026-04-18 12:04 57.05187 12.12506 998 ft 336 kts 155°
2026-04-18 12:05 57.03066 12.14358 1000 ft 337 kts 155°
2026-04-18 12:05 57.00978 12.16180 995 ft 336 kts 155°
2026-04-18 12:05 56.98979 12.18441 941 ft 339 kts 137°
2026-04-18 12:05 56.97409 12.21696 968 ft 340 kts 131°
2026-04-18 12:06 56.95894 12.25005 981 ft 338 kts 131°
2026-04-18 12:06 56.94407 12.28281 995 ft 340 kts 131°
2026-04-18 12:06 56.92898 12.31614 1001 ft 340 kts 131°
2026-04-18 12:06 56.91384 12.34976 1007 ft 339 kts 131°
2026-04-18 12:07 56.89883 12.38314 1005 ft 339 kts 131°
2026-04-18 12:07 56.88395 12.41622 993 ft 341 kts 131°
2026-04-18 12:07 56.86877 12.44983 1004 ft 342 kts 131°
2026-04-18 12:07 56.85352 12.48350 1007 ft 342 kts 131°
2026-04-18 12:08 56.83685 12.51429 971 ft 340 kts 143°
2026-04-18 12:08 56.81727 12.53758 968 ft 340 kts 153°
2026-04-18 12:08 56.79563 12.55568 989 ft 340 kts 158°
2026-04-18 12:08 56.77367 12.57187 1001 ft 339 kts 159°
2026-04-18 12:09 56.75152 12.58738 1006 ft 341 kts 160°
2026-04-18 12:09 56.72958 12.60242 1016 ft 337 kts 160°
2026-04-18 12:09 56.70742 12.61693 999 ft 339 kts 165°
2026-04-18 12:09 56.68391 12.62089 984 ft 339 kts 180°
2026-04-18 12:10 56.66059 12.61912 995 ft 339 kts 183°
2026-04-18 12:10 56.63694 12.61579 1007 ft 338 kts 184°
2026-04-18 12:10 56.61379 12.61190 1005 ft 338 kts 185°
2026-04-18 12:10 56.59026 12.60854 986 ft 340 kts 178°
2026-04-18 12:11 56.56773 12.62028 918 ft 339 kts 150°
2026-04-18 12:11 56.55100 12.65037 941 ft 344 kts 123°
2026-04-18 12:11 56.54332 12.69149 895 ft 347 kts 99°
2026-04-18 12:11 56.54472 12.73501 816 ft 353 kts 78°
2026-04-18 12:12 56.55565 12.77472 838 ft 354 kts 50°
2026-04-18 12:12 56.57711 12.79468 1110 ft 363 kts
2026-04-18 12:12 56.60239 12.80166 1085 ft 365 kts
2026-04-18 12:12 56.62778 12.80692 1051 ft 365 kts
2026-04-18 12:13 56.65269 12.81228 879 ft 364 kts
2026-04-18 12:13 56.67785 12.81742 658 ft 361 kts
2026-04-18 12:13 56.70289 12.82241 350 ft 360 kts
2026-04-18 12:13 56.70970 12.80191 770 ft 217 kts 220°
2026-04-18 12:14 56.70040 12.78712 600 ft 152 kts 217°
2026-04-18 12:14 56.69268 12.77664 625 ft 139 kts 211°
2026-04-18 12:14 56.68340 12.76789 746 ft 151 kts 197°
2026-04-18 12:14 56.67293 12.76560 847 ft 154 kts 174°
2026-04-18 12:15 56.66282 12.77249 917 ft 159 kts 144°
2026-04-18 12:15 56.65776 12.78749 1186 ft 137 kts 100°
2026-04-18 12:15 56.66065 12.80496 1124 ft 153 kts 60°
2026-04-18 12:15 56.66989 12.81673 434 ft 174 kts
2026-04-18 12:16 56.68181 12.81844 105 ft 165 kts
2026-04-18 12:16 56.69091 12.82021 70 ft 65 kts
2026-04-18 12:16 56.69334 12.82068 72 ft 32 kts
2026-04-18 12:16 56.69435 12.82089 73 ft 25 kts
2026-04-18 12:17 56.69611 12.82143 69 ft 25 kts
2026-04-18 12:17 56.69654 12.82160 69 ft 5 kts 34°
2026-04-18 12:17 56.69616 12.82306 69 ft 20 kts 146°
2026-04-18 12:17 56.69499 12.82344 67 ft 16 kts 186°
2026-04-18 12:18 56.69378 12.82319 71 ft 17 kts 186°
2026-04-18 12:18 56.69268 12.82297 71 ft 14 kts 186°
2026-04-18 12:18 56.69179 12.82279 71 ft 11 kts 178°
2026-04-18 12:18 56.69076 12.82328 70 ft 15 kts 163°
2026-04-18 12:19 56.68982 12.82378 67 ft 13 kts 163°
2026-04-18 12:19 56.68885 12.82429 67 ft 21 kts 163°
2026-04-18 12:19 56.68755 12.82498 71 ft 18 kts 164°
2026-04-18 12:19 56.68677 12.82546 69 ft 7 kts 151°
2026-04-18 12:20 56.68667 12.82653 71 ft 6 kts 84°
2026-04-18 12:20 56.68649 12.82647 66 ft 1 kts 257°